Tracking 19976 objects as of 15-Nov-2019
Live streaming from Space Station
objects crossing your sky now

OPS 1948

Track OPS 1948 now!
OPS 1948 is classified as:


NORAD ID: 11558
Int'l Code: 1979-086A
Perigee: 30,554.5 km
Apogee: 41,080.8 km
Inclination: 6.2 °
Period: 1,437.3 minutes
Semi major axis: 42188 km
RCS: Unknown
Launch date: October 1, 1979
Source: United States (US)
Launch site: AIR FORCE EASTERN TEST RANGE (AFETR)
aabbcc
Your satellite tracking list
Your tracking list is empty




NASA's NSSDC Master Catalog

Two Line Element Set (TLE):
1 11558U 79086A   19317.47061244 -.00000328  00000-0  00000+0 0  9992
2 11558   6.1505 353.3219 1247530  52.7166 124.0953  1.00186565  2079
Source of the keplerian elements: McCants